Dewpoint
69 71 75 75 75 75 75 75 75 75 75 75 75 75 75 76 76 77 77 77 77 77 77 77 76 75 75 75 74 74 73 74 74 74 74 74 74 74 73 73 73 70 74
68 71 76 75 75 75 75 75 74 74 74 73 74 75 75 75 75 76 76 76 76 76 77 75 75 75 75 75 73 74 74 74 75 74 73 73 72 71 73 72 73 71 73
67 70 72 76 75 75 75 75 74 73 73 74 73 73 75 75 75 76 76 75 75 75 75 75 75 75 75 74 74 73 73 74 73 75 70 64 67 72 72 72 73 73 72
64 65 69 75 76 75 75 75 75 75 74 74 74 74 73 75 74 75 75 75 75 75 75 75 75 75 75 74 73 73 73 72 73 70 67 66 69 73 72 72 72 73 72
63 66 71 76 76 75 76 75 75 75 74 75 74 74 75 75 74 74 75 75 75 75 74 75 75 74 73 73 72 72 72 72 73 67 66 70 70 71 72 73 72 73 73
64 68 74 75 75 75 75 75 75 75 75 75 75 75 75 75 74 75 74 75 75 74 74 73 74 74 73 73 73 73 73 73 71 63 64 71 70 71 73 72 72 72 73
65 68 72 76 76 75 75 74 74 74 74 74 74 75 74 74 74 74 75 75 74 74 74 74 75 74 73 73 72 72 73 72 69 65 65 67 71 73 73 73 72 73 71
65 67 70 75 75 75 75 75 75 74 74 75 75 75 74 75 74 75 74 74 74 74 74 75 74 74 73 73 72 71 72 74 66 69 70 70 73 73 71 72 72 73 72
64 67 69 71 74 75 75 75 74 75 74 74 74 74 74 74 74 74 75 74 74 74 74 75 74 74 73 72 72 71 71 74 67 68 68 70 73 71 72 72 73 72 71
62 64 68 71 70 71 72 74 74 74 74 73 74 74 74 74 73 74 75 75 74 74 74 75 74 73 73 72 71 71 72 73 65 68 70 72 74 72 71 70 71 72 71
63 65 66 68 72 74 73 73 74 73 73 73 73 73 74 72 71 71 75 75 73 75 74 74 74 73 72 73 74 73 72 71 65 68 70 74 73 72 73 72 71 71 70
64 68 72 69 69 70 66 73 73 73 73 73 72 73 74 73 70 69 73 75 74 75 75 75 75 73 74 69 71 73 71 66 67 68 72 74 73 72 71 72 72 71 70
65 67 66 70 71 69 70 71 74 74 72 72 73 74 73 69 70 70 72 72 73 73 71 72 74 72 72 71 68 62 63 63 65 68 72 74 73 72 70 71 71 71 70
65 66 64 69 71 73 70 70 70 71 68 69 72 71 73 73 70 74 73 73 73 72 71 72 72 72 70 68 63 64 60 61 64 69 73 74 74 73 70 70 70 69 70
66 65 65 69 70 75 71 71 69 68 67 66 70 72 72 70 75 71 70 73 71 72 71 71 73 68 71 69 67 64 63 66 64 64 70 74 74 73 71 70 69 70 70
64 64 66 69 72 73 76 76 73 69 68 69 68 70 74 74 76 72 73 72 73 74 71 67 73 74 69 69 68 67 66 67 69 66 67 72 74 73 73 72 71 70 69
62 66 67 67 69 73 75 71 75 71 69 68 70 74 74 74 74 73 71 73 73 76 75 72 74 71 71 68 70 66 68 68 67 69 68 69 72 75 74 73 71 71 71
64 67 68 62 68 70 73 74 70 72 72 72 70 73 75 75 75 76 72 72 73 73 73 71 73 72 70 70 69 69 69 67 68 68 68 69 70 68 73 74 73 73 72
66 68 69 67 68 71 73 75 70 71 71 71 74 71 75 75 75 77 75 72 76 73 74 71 72 72 70 68 63 68 68 68 67 64 68 69 66 70 70 74 75 75 73
65 68 71 67 73 74 73 73 73 71 72 72 73 74 76 76 75 74 76 76 71 75 73 68 74 70 72 63 62 63 67 66 68 69 67 66 68 68 69 72 73 72 74
64 68 70 71 74 73 73 71 70 70 71 72 73 76 74 74 76 77 77 75 71 75 68 75 74 73 71 72 72 69 67 64 65 67 67 64 67 66 67 70 72 71 71
65 68 72 72 73 74 72 75 75 72 72 72 73 75 75 75 76 75 74 75 72 73 75 75 68 73 70 72 70 70 65 66 64 62 66 64 64 66 66 67 70 70 71
65 68 71 73 73 74 75 75 77 74 73 73 73 73 74 75 76 74 76 76 76 76 73 75 75 73 70 71 72 67 66 64 69 66 65 64 65 67 66 66 68 70 71
64 67 71 73 73 73 76 74 77 74 73 71 72 75 75 75 75 75 76 75 74 73 71 74 73 71 74 71 72 70 70 66 67 65 66 63 66 62 65 69 66 69 70
61 64 70 73 74 74 76 75 74 75 71 71 73 76 77 78 76 73 77 77 76 74 73 73 75 76 75 72 70 70 70 71 68 68 64 64 67 67 66 68 66 68 69
62 64 69 73 74 75 74 76 75 75 70 70 72 72 74 76 75 76 76 77 77 72 71 77 76 76 75 77 75 73 71 67 67 68 67 66 65 66 68 67 67 69 69
Lifted_Index
-4 -4 -5 -6 -6 -6 -6 -6 -6 -6 -5 -6 -6 -6 -6 -6 -6 -7 -7 -7 -7 -7 -7 -7 -7 -7 -7 -7 -7 -6 -6 -6 -6 -5 -5 -5 -4 -4 -4 -3 -3 -3 -3
-4 -4 -5 -6 -6 -6 -6 -5 -5 -5 -5 -5 -6 -6 -6 -6 -6 -6 -7 -7 -7 -7 -7 -7 -7 -7 -7 -7 -7 -6 -6 -6 -6 -5 -4 -4 -4 -3 -3 -3 -4 -3 -3
-3 -3 -5 -6 -6 -6 -6 -5 -5 -5 -5 -5 -5 -6 -6 -6 -6 -6 -7 -7 -7 -7 -7 -7 -7 -8 -8 -7 -7 -6 -6 -6 -5 -5 -3 -3 -3 -3 -3 -4 -4 -3 -3
-2 -2 -4 -5 -6 -6 -6 -6 -6 -6 -6 -6 -6 -5 -6 -6 -6 -6 -7 -7 -7 -7 -7 -7 -8 -8 -8 -7 -7 -6 -5 -5 -5 -4 -3 -3 -4 -4 -4 -4 -4 -3 -3
-2 -2 -4 -5 -6 -6 -6 -6 -6 -6 -6 -6 -6 -5 -6 -6 -6 -6 -7 -7 -7 -7 -6 -7 -7 -8 -7 -7 -6 -6 -5 -5 -4 -3 -3 -4 -4 -4 -4 -4 -3 -3 -3
-2 -3 -4 -5 -6 -6 -6 -6 -6 -6 -5 -6 -5 -6 -6 -6 -6 -6 -7 -7 -7 -7 -6 -6 -7 -7 -7 -6 -6 -6 -6 -5 -3 -2 -2 -3 -4 -4 -4 -4 -3 -3 -3
-2 -3 -4 -5 -5 -5 -5 -5 -5 -5 -5 -5 -5 -5 -6 -6 -6 -6 -6 -7 -7 -7 -7 -7 -7 -7 -6 -6 -6 -6 -6 -5 -3 -2 -2 -3 -4 -4 -4 -3 -3 -3 -2
-2 -3 -4 -5 -5 -5 -5 -5 -5 -4 -5 -5 -5 -5 -5 -5 -6 -6 -6 -6 -6 -6 -7 -7 -7 -6 -6 -6 -6 -6 -5 -5 -4 -3 -3 -3 -4 -4 -3 -3 -3 -3 -2
-2 -3 -4 -4 -5 -5 -5 -4 -4 -4 -4 -4 -4 -5 -5 -5 -5 -6 -6 -6 -6 -6 -7 -7 -7 -6 -6 -6 -5 -5 -5 -4 -3 -3 -4 -4 -4 -3 -3 -3 -3 -2 -2
-2 -2 -3 -4 -4 -4 -4 -4 -4 -4 -4 -4 -4 -4 -5 -5 -5 -5 -6 -6 -6 -6 -6 -7 -7 -6 -6 -5 -5 -5 -5 -4 -4 -4 -4 -4 -4 -4 -3 -3 -3 -2 -2
-2 -2 -3 -4 -4 -4 -4 -4 -4 -4 -4 -4 -4 -4 -4 -4 -4 -5 -5 -6 -6 -6 -6 -7 -6 -6 -5 -5 -5 -5 -5 -5 -4 -4 -4 -4 -4 -4 -4 -3 -3 -2 -2
-2 -2 -3 -3 -4 -3 -3 -4 -4 -4 -4 -4 -4 -4 -4 -4 -4 -4 -5 -6 -6 -6 -6 -6 -6 -6 -6 -5 -5 -4 -4 -4 -4 -4 -4 -4 -4 -4 -3 -3 -3 -2 -2
-2 -2 -3 -3 -3 -3 -3 -4 -4 -4 -3 -4 -4 -4 -4 -4 -4 -4 -5 -5 -6 -5 -5 -6 -6 -6 -5 -5 -4 -3 -2 -3 -3 -4 -4 -4 -4 -4 -3 -3 -3 -3 -3
-2 -2 -2 -2 -3 -3 -3 -3 -3 -3 -3 -3 -3 -3 -3 -4 -4 -4 -5 -5 -5 -4 -4 -4 -5 -5 -5 -4 -3 -2 -1 -2 -2 -3 -4 -4 -4 -4 -3 -3 -3 -3 -3
-2 -1 -2 -2 -2 -3 -3 -3 -3 -2 -2 -2 -2 -2 -3 -4 -5 -4 -4 -4 -4 -4 -4 -3 -4 -4 -4 -3 -3 -2 -2 -2 -2 -3 -3 -4 -4 -4 -3 -3 -3 -3 -4
-1 -1 -1 -2 -2 -3 -4 -3 -3 -2 -2 -2 -2 -3 -4 -4 -5 -4 -3 -4 -4 -5 -4 -3 -4 -4 -4 -3 -3 -2 -2 -2 -2 -3 -3 -3 -4 -4 -4 -4 -4 -4 -3
-1 -1 -1 -1 -2 -3 -3 -3 -3 -3 -3 -3 -3 -3 -4 -5 -5 -4 -3 -3 -4 -4 -4 -4 -4 -4 -3 -3 -3 -2 -2 -2 -2 -3 -3 -3 -4 -4 -4 -4 -4 -4 -4
-1 -1 -1 -1 -2 -2 -3 -3 -3 -2 -3 -3 -3 -4 -4 -4 -5 -4 -4 -3 -4 -4 -4 -3 -3 -3 -3 -2 -2 -2 -2 -2 -2 -2 -3 -3 -4 -4 -5 -5 -5 -5 -5
-1 -1 -1 -1 -2 -2 -3 -3 -3 -2 -2 -3 -3 -4 -4 -4 -5 -5 -4 -4 -4 -4 -3 -3 -2 -2 -2 -2 -1 -2 -2 -2 -2 -2 -3 -3 -4 -5 -5 -5 -5 -5 -5
-1 -1 -2 -2 -2 -3 -3 -3 -3 -3 -3 -3 -4 -4 -4 -4 -4 -5 -5 -4 -3 -4 -3 -3 -3 -2 -2 -2 -2 -2 -2 -2 -2 -2 -3 -3 -3 -4 -5 -5 -6 -5 -5
-1 -2 -2 -2 -3 -3 -3 -3 -3 -3 -3 -3 -4 -4 -4 -4 -4 -5 -5 -4 -3 -3 -4 -4 -3 -3 -3 -3 -3 -2 -1 -1 -1 -2 -2 -3 -3 -4 -5 -5 -6 -6 -5
-1 -2 -2 -3 -3 -3 -3 -3 -4 -4 -4 -4 -4 -4 -4 -4 -4 -4 -4 -4 -4 -4 -4 -4 -4 -3 -3 -3 -3 -3 -2 -1 -2 -2 -2 -2 -3 -3 -4 -4 -5 -5 -5
-1 -2 -2 -3 -3 -3 -3 -4 -4 -4 -4 -3 -4 -4 -4 -4 -4 -4 -4 -4 -4 -3 -4 -4 -4 -4 -3 -3 -3 -2 -2 -2 -2 -2 -2 -2 -2 -3 -3 -4 -5 -5 -5
-1 -1 -2 -3 -3 -3 -4 -4 -4 -3 -3 -3 -3 -4 -4 -4 -4 -4 -5 -5 -4 -3 -3 -4 -5 -4 -4 -4 -3 -3 -3 -3 -3 -3 -2 -2 -2 -3 -3 -4 -4 -5 -5
-0 -1 -2 -3 -4 -4 -4 -4 -4 -3 -3 -2 -3 -4 -4 -4 -4 -4 -5 -5 -4 -3 -3 -4 -5 -5 -5 -5 -4 -3 -3 -3 -3 -3 -3 -2 -2 -3 -3 -4 -4 -4 -5
-0 -1 -2 -3 -4 -4 -4 -4 -4 -4 -3 -2 -2 -3 -4 -4 -4 -4 -5 -5 -4 -3 -3 -4 -5 -5 -6 -6 -5 -4 -3 -3 -3 -4 -3 -3 -3 -3 -4 -4 -4 -5 -5